Location: Izdebno
(52.6670°N, 16.2170°E)
Time: 13:39:43
(UTC+02:00)

A-11 Canister half - Pass Details

Date: 01 March 2024
Orbit: 1525 x 1683 km, 47.3° (Epoch: 24 April)

Event Time Altitude Azimuth Distance (km) Brightness Sun altitude
Rises 19:32:41 0° 225° (SW) 4,794 12.0 -18.6°
Reaches altitude 10° 19:35:59 10° 219° (SW) 3,789 11.4 -19.1°
Maximum altitude 19:44:49 44° 152° (SSE) 2,046 9.3 -20.3°
Enters shadow 19:48:35 31° 105° (ESE) 2,451 9.5 -20.9°
